sat.trackr.live / text

‹ back to catalog

STARLINK-33555

NORAD 62104 · 2024-220S

PAYLOAD ACTIVE UNKNOWN

§ Identity

Operator
Country
US
Launch date
2024-11-25
Launch site
AFETR
Launch vehicle
Mass (kg)
RCS (m²)

Purposes: comms

External: N2YO · Heavens-Above · Gunter

§ Orbital elements

Epoch: 2026-05-25T00:31:49.954944Z

Period
94.27 min
Inclination
42.9942°
Eccentricity
0.0000190
Mean motion
15.27603564 rev/d
Perigee alt
482.8 km
Apogee alt
483.1 km
Semi-major
6,861.1 km
B*
6.0712e-4
RAAN
134.5966°
Arg perigee
8.9781°
Mean anomaly
351.1074°
Rev number
8,483

§ Raw data

STARLINK-335551 62104U 24220S   26145.02210596  .00016494  00000+0  60712-3 0  99982 62104  42.9942 134.5966 0000190   8.9781 351.1074 15.27603564 84835

JSON: /api/v1/satellites/62104 · /tle

For live sub-satellite position, see the globe view (requires WebGL).

§ Visibility from observer

Set your observer location to see the next 7 days of passes ≥ 10°. The values pass through the URL so the page stays shareable.

No JS? Fill the form by hand. The geolocation button needs JavaScript.